This is the latest recevied weather packets stored in our database for station/object K1BES. If no packets are shown the sender has not sent any weather packets the latest 10 day(s).
| Time | Temp. | Humidity | Pressure | Rain* | Wind** | Luminosity | Snow |
|---|---|---|---|---|---|---|---|
| 1787529448 | 24.44° C | 93% | 1017.9 hPa | 0 mm | - | 2 W/m² | - |
| 1787529147 | 24.44° C | 93% | 1017.7 hPa | 0 mm | - | 4 W/m² | - |
| 1787528843 | 24.44° C | 92% | 1017.6 hPa | 0 mm | - | 3 W/m² | - |
| 1787528539 | 24.44° C | 92% | 1017.5 hPa | 1.78 mm | - | 3 W/m² | - |
| 1787528234 | 24.44° C | 91% | 1017.7 hPa | 1.78 mm | - | 4 W/m² | - |
| 1787527931 | 24.44° C | 91% | 1017.9 hPa | 0 mm | - | 5 W/m² | - |
| 1787527627 | 24.44° C | 90% | 1017.7 hPa | 1.27 mm | - | 7 W/m² | - |
| 1787527322 | 25° C | 90% | 1017.7 hPa | 1.27 mm | - | 8 W/m² | - |
| 1787527017 | 25° C | 89% | 1017.9 hPa | 0 mm | - | 9 W/m² | - |
| 1787526713 | 25° C | 88% | 1017.8 hPa | 0 mm | - | 11 W/m² | - |
| 1787526410 | 25° C | 88% | 1017.8 hPa | 1.78 mm | - | 11 W/m² | - |
| 1787526106 | 25° C | 87% | 1017.5 hPa | 1.78 mm | - | 12 W/m² | - |
| 1787525802 | 25.56° C | 85% | 1017.7 hPa | 0 mm | - | 12 W/m² | - |
| 1787525501 | 25.56° C | 85% | 1017.7 hPa | 0 mm | - | 14 W/m² | - |
| 1787525202 | 25.56° C | 83% | 1017.6 hPa | 0 mm | - | 14 W/m² | - |
| 1787524898 | 25.56° C | 82% | 1017.5 hPa | 0 mm | - | 16 W/m² | - |
| 1787524593 | 25.56° C | 81% | 1017.2 hPa | 0 mm | - | 19 W/m² | - |
| 1787524288 | 26.11° C | 81% | 1017.4 hPa | 0 mm | - | 22 W/m² | - |
| 1787523991 | 26.11° C | 82% | 1017.3 hPa | 0 mm | - | 27 W/m² | - |
| 1787523679 | 26.11° C | 81% | 1017.3 hPa | 0 mm | - | 33 W/m² | - |
| 1787523378 | 26.11° C | 80% | 1017.2 hPa | 0 mm | - | 39 W/m² | - |
| 1787523074 | 26.67° C | 82% | 1017.3 hPa | 0 mm | - | 49 W/m² | - |
| 1787522771 | 26.67° C | 83% | 1017.3 hPa | 0 mm | - | 61 W/m² | - |
| 1787522466 | 26.67° C | 83% | 1017.7 hPa | 0 mm | - | 72 W/m² | - |
| 1787522161 | 26.67° C | 84% | 1017.5 hPa | 0 mm | - | 82 W/m² | - |
* Rain latest hour (hover to see other rain measurements)
** Current wind speed in m/s (hover to see current wind gust speed)